OpenBCM V1.13 (Linux)

Packet Radio Mailbox

DB0FHN

[JN59NK Nuernberg]

 Login: GUEST





  
F1EBE  > KEPLER   26.02.03 11:28l 106 Lines 5484 Bytes #999 (0) @ EU
BID : 22896_F8KOH
Read: DB0FHN GUEST
Subj: 2L Satell Amat  056.day
Path: DB0FHN<DB0ZWI<DB0HST<HB9OK<HA3PG<LX0HST<LX0PAC<F6KWP<F6KIF<F1HCI<
      F6KDS<F5KCK<F8KAE<F8KOH
Sent: 030226/0814Z @:F8KOH.FNOR.FRA.EU #:22896 [Vernon] FBB7.00i $:22896_F8KOH
From: F1EBE@F8KOH.FNOR.FRA.EU
To  : KEPLER@EU



AO-7                    
1 07530U 74089B   03055.67718673 -.00000029  00000-0  10000-3 0  1775
2 07530 101.7600 103.4074 0012194  67.7090 292.5272 12.53564503293958
AO-10                   
1 14129U 83058B   03053.29347507 -.00000135  00000-0  10000-3 0  9207
2 14129  25.9661 163.6642 6025305 329.8586   6.1874  2.05867335120141
UO-11                   
1 14781U 84021B   03055.97503434  .00001111  00000-0  16122-3 0  1018
2 14781  98.1189  29.9482 0009142 182.6863 177.4295 14.78016109 17182
UO-14                   
1 20437U 90005B   03055.72071325  .00000103  00000-0  54358-4 0  1726
2 20437  98.2692  99.0387 0010549 179.0052 181.1153 14.31240172683375
AO-16                   
1 20439U 90005D   03055.73460780  .00000085  00000-0  47680-4 0  8564
2 20439  98.3159 110.7730 0010612 186.0232 174.0809 14.31474200683413
DO-17                   
1 20440U 90005E   03055.72232589  .00000171  00000-0  79510-4 0  7370
2 20440  98.3369 114.6695 0010601 184.8157 175.2929 14.31753132683488
WO-18                   
1 20441U 90005F   03056.55378521  .00000114  00000-0  58474-4 0   208
2 20441  98.3325 114.6734 0011373 183.6326 176.4777 14.31556381683589
LO-19                   
1 20442U 90005G   03056.25186524  .00000145  00000-0  69878-4 0  9715
2 20442  98.3446 117.4192 0011618 183.6820 176.4277 14.31719807683594
FO-20                   
1 20480U 90013C   03055.93821890 -.00000006  00000-0  63412-4 0  4879
2 20480  99.0474  17.4831 0540701 349.4657   9.5470 12.83330406611337
RS-12/13                
1 21089U 91007A   03055.87424669  .00000057  00000-0  44957-4 0  5234
2 21089  82.9231 176.7011 0027638 269.6779  90.1209 13.74404866604657
UO-22                   
1 21575U 91050B   03056.52990159  .00000267  00000-0  99233-4 0  7341
2 21575  98.1415  48.3006 0008363 108.6928 251.5170 14.39159592609289
KO-23                   
1 22077U 92052B   03055.94261038 -.00000037  00000-0  10000-3 0  2787
2 22077  66.0868 112.3815 0015635 271.9974  87.9255 12.86408676495129
AO-27                   
1 22825U 93061C   03055.98449923  .00000097  00000-0  54475-4 0  4977
2 22825  98.2743  85.3541 0007507 238.2008 121.8445 14.28945457490795
IO-26                   
1 22826U 93061D   03055.59370808  .00000150  00000-0  75404-4 0  3176
2 22826  98.2747  86.1023 0008004 242.1396 117.8968 14.29168881490784
KO-25                   
1 22828U 93061F   03055.64258940  .00000110  00000-0  58928-4 0  4333
2 22828  98.2711  86.4121 0009130 217.2684 142.7865 14.29510423458996
POSAT                   
1 22829U 93061G   03056.49045320  .00000183  00000-0  87115-4 0  4592
2 22829  98.2718  87.8261 0008998 214.3326 145.7278 14.29772152491049
RS-15                   
1 23439U 94085A   03055.41335031 -.00000040  00000-0  63370-4 0  6894
2 23439  64.8161  32.0287 0146717 114.0454 247.5899 11.27547632336257
FO-29                   
1 24278U 96046B   03055.90199122 -.00000005  00000-0  31691-4 0  5732
2 24278  98.5379 206.2630 0350317 199.9725 158.7413 13.52872861322162
TO-31                   
1 25396U 98043C   03056.56467499 -.00000043  00000-0  00000+0 0  8269
2 25396  98.6243 133.5295 0003625 109.7426 250.4144 14.23513762240529
GO-32                   
1 25397U 98043D   03055.95636878  .00000060  00000-0  45781-4 0  1262
2 25397  98.6210 131.8109 0002199 117.7747 242.3653 14.22961490240405
SO-33                   
1 25509U 98061B   03055.52631610  .00000693  00000-0  12813-3 0  7873
2 25509  31.4315 119.5183 0357573 354.8331   4.8661 14.27443630226161
PO-34                   
1 25520U 98064B   03055.55834812  .00001970  00000-0  95733-4 0  6412
2 25520  28.4634 183.9707 0005441  55.5189 304.5864 15.13912763238499
ISS         
1 25544U 98067A   03056.51195713  .00013863  00000-0  18211-3 0  7261
2 25544  51.6345 221.1361 0012122 244.4040 219.0269 15.58741515243581
UO-36                   
1 25693U 99021A   03056.32375685  .00000491  00000-0  90115-4 0  7351
2 25693  64.5613 350.1104 0020939 315.5562  44.3860 14.76397929207254
OO-38                   
1 26063U 00004C   03056.17683122  .00000124  00000-0  63169-4 0  7281
2 26063 100.2060 111.9519 0036735 268.5295  91.1670 14.35484288161331
SO-41                   
1 26545U 00057A   03055.90180258  .00000610  00000-0  10011-3 0  4178
2 26545  64.5602  12.4572 0051727 237.7235 121.8833 14.78996996130164
MO-46                   
1 26548U 00057D   03055.84701289  .00000967  00000-0  14027-3 0  4229
2 26548  64.5589   5.4462 0044933 237.2357 122.4430 14.81291776130306
SO-42                   
1 26549U 00057E   03055.94243662  .00000748  00000-0  12080-3 0  7011
2 26549  64.5535  16.4803 0056065 237.8683 121.6964 14.77935153130083
AO-40                   
1 26609U 00072B   03050.21683058 -.00000170  00000-0  10000-3 0  3125
2 26609   8.1020  63.9362 7942557 145.4197 310.7583  1.25596576 10593
NO-44                   
1 26931U 01043C   03055.96374416  .00000077  00000-0  62942-4 0  4134
2 26931  67.0474 239.1508 0005089 268.9722  91.0796 14.29118165 73265
NO-45                   
1 26932U 01043D   03056.57077197  .00000031  00000-0  44476-4 0  4052
2 26932  67.0540 237.2909 0004652 244.0726 115.9895 14.29296443 73372
AO-49                   
1 27605U 02058A   03055.90098690  .00000564  00000-0  11161-3 0   673
2 27605  64.5545 178.0116 0035970 111.3578 249.1364 14.71383335  9742
SO-50                   
1 27607U 02058C   03055.83375010  .00000825  00000-0  15802-3 0   633
2 27607  64.5515 178.6977 0037102 107.4437 253.0721 14.69919103  9725



Read previous mail | Read next mail


 22.06.2026 21:56:46lGo back Go up